Point Hope, AK

9:03 AM AKDT on June 29, 2017 (GMT -0800)
Point Hope

Weather History for PAPO - June, 2013

Change the Weather History Date:

Friday, June 14, 2013

  Actual Average Record
Temperature  
Mean Temperature 44 °F -  
Max Temperature 53 °F 40 °F 53 °F (2013)
Min Temperature 35 °F 33 °F 28 °F (1997)
Degree Days  
Heating Degree Days 21    
Moisture  
Dew Point 36 °F    
Average Humidity 77    
Maximum Humidity 93    
Minimum Humidity 54    
Precipitation  
Precipitation 0.04 in - - ()
Sea Level Pressure  
Sea Level Pressure 30.06 in    
Wind  
Wind Speed 11 mph (ESE)    
Max Wind Speed 16 mph    
Max Gust Speed -    
Visibility 7 miles    
Events      
Averages and records for this station are not official NWS values.
T = Trace of Precipitation, MM = Missing Value Source: NWS Daily Summary

Daily Weather History Graph

Daily Weather History Graph

Search for Another Location

Airport or City:

Trip Planner

Search our weather history database for the weather conditions in past years. The results will help you decide how hot, cold, wet, or windy it might be!

Date:

Astronomy

Dec. 31, 1969 Rise Set
Actual Time Sun does not set Sun does not set
Civil Twilight Sun does not set Sun does not set
Nautical Twilight Sun does not set Sun does not set
Astronomical Twilight Sun does not set Sun does not set
Moon 12:42 PM AKDT (6/14) 2:44 AM AKDT (6/14)
Length of Visible Light 24h 00m
Length of Day
24h 00m
Waxing Crescent, 31% of the Moon is Illuminated
Jun 14
Waxing Crescent
Jun 16
First Quarter
Jun 23
Full
Jun 29
Last Quarter
Jul 7
New

Hourly Weather History & Observations

Time (AKDT) Temp. Windchill Dew Point Humidity Pressure Visibility Wind Dir Wind Speed Gust Speed Precip Events Conditions
11:16 AM 48.2 °F - 37.4 °F 66% 30.02 in 10.0 mi NNE 11.5 mph - N/A   Clear
11:36 AM 51.8 °F - 37.4 °F 58% 30.02 in 10.0 mi NNE 9.2 mph - N/A   Clear
11:56 AM 51.8 °F - 39.2 °F 62% 30.02 in 10.0 mi NNE 10.4 mph - N/A   Clear
12:16 PM 51.8 °F - 39.2 °F 62% 30.01 in 10.0 mi NNE 10.4 mph - N/A   Scattered Clouds
12:36 PM 53.6 °F - 39.2 °F 58% 30.01 in 10.0 mi NNE 10.4 mph - N/A   Scattered Clouds
12:56 PM 53.6 °F - 39.2 °F 58% 30.00 in 10.0 mi NNE 8.1 mph - N/A   Partly Cloudy
1:16 PM 51.8 °F - 39.2 °F 62% 30.01 in 10.0 mi North 8.1 mph - N/A   Mostly Cloudy
1:36 PM 51.8 °F - 39.2 °F 62% 30.00 in 10.0 mi North 8.1 mph - N/A   Mostly Cloudy
1:56 PM 51.8 °F - 39.2 °F 62% 30.00 in 10.0 mi North 6.9 mph - N/A   Mostly Cloudy
2:16 PM 51.8 °F - 39.2 °F 62% 30.00 in 10.0 mi NNE 6.9 mph - N/A   Mostly Cloudy
2:36 PM 51.8 °F - 39.2 °F 62% 30.00 in 10.0 mi NNE 6.9 mph - N/A   Partly Cloudy
2:56 PM 51.8 °F - 39.2 °F 62% 30.00 in 10.0 mi NE 6.9 mph - N/A   Partly Cloudy
3:16 PM 53.6 °F - 37.4 °F 54% 30.00 in 10.0 mi SE 5.8 mph - N/A   Partly Cloudy
3:36 PM 48.2 °F - 37.4 °F 66% 30.01 in 10.0 mi SE 10.4 mph - N/A   Clear
3:56 PM 42.8 °F 36.6 °F 33.8 °F 70% 30.02 in 10.0 mi South 11.5 mph - N/A   Partly Cloudy
4:16 PM 41.0 °F 33.1 °F 33.8 °F 76% 30.02 in 10.0 mi SW 15.0 mph - N/A   Scattered Clouds
4:36 PM 39.2 °F 31.2 °F 33.8 °F 81% 30.03 in 10.0 mi SSW 13.8 mph - N/A   Mostly Cloudy
4:56 PM 39.2 °F 30.5 °F 33.8 °F 81% 30.04 in 10.0 mi South 16.1 mph - N/A   Overcast
5:16 PM 39.2 °F 31.2 °F 33.8 °F 81% 30.06 in 10.0 mi SSE 13.8 mph - N/A   Overcast
5:36 PM 37.4 °F 28.2 °F 33.8 °F 87% 30.07 in 10.0 mi South 16.1 mph - N/A   Overcast
5:56 PM 39.2 °F 32.0 °F 33.8 °F 81% 30.07 in 10.0 mi South 11.5 mph - N/A   Overcast
6:16 PM 37.4 °F 30.3 °F 35.6 °F 93% 30.08 in 10.0 mi SSE 10.4 mph - N/A   Overcast
6:36 PM 37.4 °F 30.3 °F 33.8 °F 87% 30.09 in 10.0 mi SSE 10.4 mph - N/A   Overcast
6:56 PM 37.4 °F 30.3 °F 33.8 °F 87% 30.09 in 9.0 mi SE 10.4 mph - N/A   Overcast
7:16 PM 37.4 °F 30.3 °F 33.8 °F 87% 30.09 in 7.0 mi SE 10.4 mph - 0.01 in   Overcast
7:36 PM 37.4 °F 29.8 °F 33.8 °F 87% 30.10 in 4.0 mi SE 11.5 mph - 0.01 in   Overcast
7:56 PM 37.4 °F 29.8 °F 33.8 °F 87% 30.10 in 2.5 mi SSE 11.5 mph - 0.02 in   Overcast
8:16 PM 37.4 °F 30.3 °F 33.8 °F 87% 30.10 in 1.2 mi SSE 10.4 mph - N/A   Overcast
8:36 PM 37.4 °F 29.8 °F 33.8 °F 87% 30.10 in 1.2 mi SE 11.5 mph - 0.01 in   Overcast
8:56 PM 37.4 °F 29.8 °F 33.8 °F 87% 30.10 in 1.2 mi SE 11.5 mph - 0.01 in   Overcast
9:16 PM 37.4 °F 29.3 °F 33.8 °F 87% 30.10 in 0.2 mi SE 12.7 mph - N/A   Overcast
9:36 PM 35.6 °F 27.5 °F 33.8 °F 93% 30.10 in 0.2 mi SE 11.5 mph - N/A   Overcast
9:56 PM 35.6 °F 27.1 °F 33.8 °F 93% 30.10 in 0.2 mi SE 12.7 mph - N/A   Overcast
10:16 PM 35.6 °F 27.1 °F 33.8 °F 93% 30.10 in 0.2 mi SE 12.7 mph - N/A   Overcast
10:36 PM 35.6 °F 27.1 °F 33.8 °F 93% 30.10 in 0.2 mi SE 12.7 mph - N/A   Overcast
10:56 PM 37.4 °F 28.9 °F 33.8 °F 87% 30.10 in 0.2 mi SE 13.8 mph - N/A   Overcast
11:16 PM 37.4 °F 28.5 °F 33.8 °F 87% 30.10 in 0.2 mi SE 15.0 mph - 0.01 in   Overcast
11:36 PM 37.4 °F 29.3 °F 33.8 °F 87% 30.10 in 0.2 mi SE 12.7 mph - 0.01 in   Overcast
11:56 PM 37.4 °F 29.3 °F 33.8 °F 87% 30.10 in 0.2 mi SE 12.7 mph - 0.01 in   Overcast